Back to catalog

STARLINK-36296

AliveCommunicationsSSO
NORAD 68380·PAYLOAD·🇺🇸 United States

Launched Mar 26, 2026 from Vandenberg Space Force Base

Loading…

Next Passes (next 24 hours)

TLE

FreshSource: CelesTrak SupGP

Epoch: Sep 15, 2026, 02:54 UTC

1 68380C 26063A   26258.12131944 -.00031812  00000+0 -98767-3 0  2584
2 68380  97.2864  42.0330 0000928  86.6573 110.0386 15.33451442    11

Track STARLINK-36296 in real time with AllMySat

Download on the App Store